Location: Arbon
(43.0005°N, 0.7472°E)
Time: 21:17:49
(UTC+00:00)

Altair - Pass Details

Date: 01 December 2020
Orbit: 1501 x 1682 km, 47.2° (Epoch: 26 January)

Event Time Altitude Azimuth Distance (km) Brightness Sun altitude
Rises 17:18:19 0° 186° (S) 4,783 10.5 -9.9°
Reaches altitude 10° 17:22:28 10° 171° (S) 3,769 9.7 -10.6°
Maximum altitude 17:28:53 21° 128° (SE) 2,974 8.7 -11.7°
Enters shadow 17:33:59 13° 90° (E) 3,458 8.8 -12.6°
Drops below altitude 10° 17:35:11 10° 84° (E) 3,693 - -12.8°
Sets 17:39:09 0° 69° (ENE) 4,659 - -13.5°
